This demonstration page uses our WeatherBlox Daily Observations layout. Learn more.

40.92945, -100.16068

Hourly Observations for May 3, 2016

Temp ( °F °C ) Dew Point ( °F °C ) Humidity (%) Winds ( mph kmh ) Pressure ( in mb ) Visibility ( mi km ) Precip ( " mm )
12:15 am 00:15 Partly Cloudy 49 9.2 40 4.2 71 71 SE 6 9 30.06 1018 10 16.0934 N/A
12:35 am 00:35 Mostly Cloudy 49 9.3 39 4 70 70 SE 6 9 30.06 1018 10 16.0934 N/A
12:55 am 00:55 Cloudy 48 8.9 40 4.3 73 73 ESE 7 11 30.06 1018 10 16.0934 N/A
1:15 am 01:15 Cloudy 49 9.2 39 4 70 70 SE 3 6 30.06 1018 10 16.0934 N/A
1:35 am 01:35 Cloudy 48 8.9 40 4.4 74 74 Calm 30.06 1018 10 16.0934 N/A
1:55 am 01:55 Cloudy 47 8.3 41 5.2 81 81 NW 8 13 30.06 1018 10 16.0934 N/A
2:15 am 02:15 Cloudy 48 9 41 5.1 77 77 NW 7 11 30.06 1018 10 16.0934 N/A
2:35 am 02:35 Mostly Cloudy 47 8.1 42 5.3 83 83 NNW 7 11 30.06 1018 10 16.0934 N/A
2:55 am 02:55 Partly Cloudy 46 7.6 41 5 84 84 NNW 3 6 30.06 1018 10 16.0934 N/A
3:15 am 03:15 Clear 46 7.6 40 4.7 82 82 WNW 3 6 30.06 1018 10 16.0934 N/A
3:35 am 03:35 Partly Cloudy 44 6.9 40 4.7 86 86 N 5 7 30.09 1019 10 16.0934 N/A
3:55 am 03:55 Partly Cloudy 42 5.8 39 3.8 87 87 NNE 6 9 30.09 1019 10 16.0934 N/A
4:15 am 04:15 Partly Cloudy 42 5.7 39 3.8 88 88 Calm 30.09 1019 10 16.0934 N/A
4:35 am 04:35 Clear 43 6 39 4 87 87 Calm 30.09 1019 10 16.0934 N/A
4:55 am 04:55 Clear 41 5.2 38 3.5 89 89 Calm 30.09 1019 10 16.0934 N/A
5:15 am 05:15 Clear 42 5.6 39 3.9 89 89 Calm 30.09 1019 10 16.0934 N/A
5:35 am 05:35 Clear 39 3.9 37 2.6 91 91 NNW 3 6 30.12 1020 10 16.0934 N/A
5:55 am 05:55 Clear 40 4.5 38 3.4 93 93 N 3 6 30.09 1019 10 16.0934 N/A
6:15 am 06:15 Clear 39 4 37 2.7 91 91 N 5 7 30.09 1019 10 16.0934 N/A
6:35 am 06:35 Sunny 38 3.1 36 2 93 93 Calm 30.12 1020 10 16.0934 N/A
6:55 am 06:55 Sunny 38 3.4 36 2.3 93 93 W 3 6 30.12 1020 10 16.0934 N/A
7:15 am 07:15 Sunny 38 3.5 36 2.4 93 93 W 5 7 30.12 1020 10 16.0934 N/A
7:35 am 07:35 Sunny 41 4.8 39 3.7 93 93 WNW 3 6 30.09 1019 10 16.0934 N/A
7:55 am 07:55 Sunny 43 6.2 41 5 92 92 WNW 3 6 30.09 1019 10 16.0934 N/A
8:15 am 08:15 Sunny 45 7.2 42 5.4 88 88 NNW 3 6 30.06 1018 10 16.0934 N/A
8:35 am 08:35 Sunny 48 8.7 43 6.2 84 84 N 3 6 30.06 1018 10 16.0934 N/A
8:55 am 08:55 Sunny 50 10 44 6.4 79 79 N 5 7 30.06 1018 10 16.0934 N/A
9:15 am 09:15 Sunny 52 10.9 44 6.8 76 76 N 5 7 30.06 1018 10 16.0934 N/A
9:35 am 09:35 Sunny 53 11.9 44 6.5 70 70 N 6 9 30.06 1018 10 16.0934 N/A
9:55 am 09:55 Hazy 54 12.4 43 6.3 67 67 NE 6 9 30.06 1018 4 6.43736 N/A
10:15 am 10:15 Sunny 56 13.1 44 6.6 65 65 NNE 6 9 30.06 1018 10 16.0934 N/A
10:35 am 10:35 Sunny 56 13.5 43 6.1 61 61 NNE 3 6 30.06 1018 10 16.0934 N/A
10:55 am 10:55 Sunny 57 14.1 44 6.5 60 60 N 5 7 30.03 1017 10 16.0934 N/A
11:15 am 11:15 Sunny 59 14.9 45 7.3 61 61 N 7 11 30.03 1017 10 16.0934 N/A
11:35 am 11:35 Sunny 60 15.3 44 6.8 57 57 N 5 7 30.03 1017 10 16.0934 N/A
11:55 am 11:55 Sunny 61 15.9 44 6.6 54 54 ENE 6 9 30.03 1017 10 16.0934 N/A
12:15 pm 12:15 Sunny 61 15.9 42 5.5 50 50 ENE 3 6 30.03 1017 10 16.0934 N/A
12:35 pm 12:35 Sunny 61 16.1 42 5.8 51 51 ENE 6 9 30.03 1017 10 16.0934 N/A
12:55 pm 12:55 Sunny 61 16.2 38 3.5 43 43 Calm 30.03 1017 10 16.0934 N/A
1:15 pm 13:15 Sunny 63 17 41 4.9 45 45 WSW 3 6 30.03 1017 10 16.0934 N/A
1:35 pm 13:35 Sunny 63 17.1 41 4.9 45 45 Calm 29.97 1015 10 16.0934 N/A
1:55 pm 13:55 Sunny 63 17.3 41 4.9 44 44 Calm 29.97 1015 10 16.0934 N/A
2:15 pm 14:15 Partly Cloudy 63 17.4 42 5.4 45 45 Calm 29.97 1015 10 16.0934 N/A
2:35 pm 14:35 Partly Cloudy 64 18 42 5.7 45 45 N 6 9 29.97 1015 10 16.0934 N/A
2:55 pm 14:55 Partly Cloudy 65 18.1 42 5.3 43 43 N 6 9 29.97 1015 10 16.0934 N/A
3:15 pm 15:15 Partly Cloudy 65 18.5 42 5.8 44 44 NW 7 11 29.97 1015 10 16.0934 N/A
3:35 pm 15:35 Partly Cloudy 65 18.3 43 5.9 44 44 NW 6 9 29.97 1015 10 16.0934 N/A
3:55 pm 15:55 Mostly Cloudy 67 19.4 43 6.3 43 43 NW 8 13 29.97 1015 10 16.0934 N/A
4:15 pm 16:15 Partly Cloudy 66 18.9 42 5.7 42 42 NW 8 13 29.97 1015 10 16.0934 N/A
4:35 pm 16:35 Sunny 67 19.4 44 6.5 43 43 WNW 12 19 29.97 1015 10 16.0934 N/A
4:55 pm 16:55 Sunny 67 19.5 41 4.9 38 38 NW 13 20 29.97 1015 10 16.0934 N/A
5:15 pm 17:15 Sunny 67 19.5 42 5.5 40 40 NNW 7 11 29.97 1015 10 16.0934 N/A
5:35 pm 17:35 Sunny 67 19.5 40 4.6 38 38 NNW 10 17 29.97 1015 10 16.0934 N/A
5:55 pm 17:55 Sunny 67 19.6 41 4.8 38 38 NW 9 15 29.97 1015 10 16.0934 N/A
6:15 pm 18:15 Sunny 68 19.8 40 4.7 37 37 WNW 12 19 29.97 1015 10 16.0934 N/A
6:35 pm 18:35 Sunny 67 19.7 41 5.2 39 39 NNW 12 19 29.97 1015 10 16.0934 N/A
6:55 pm 18:55 Sunny 67 19.5 42 5.4 40 40 NNW 13 20 29.97 1015 10 16.0934 N/A
7:15 pm 19:15 Sunny 67 19.2 42 5.4 41 41 NW 8 13 29.97 1015 10 16.0934 N/A
7:35 pm 19:35 Sunny 65 18.5 45 7.3 48 48 NNW 6 9 29.94 1014 10 16.0934 N/A
7:55 pm 19:55 Sunny 64 17.6 46 7.6 52 52 NW 6 9 29.94 1014 10 16.0934 N/A
8:15 pm 20:15 Sunny 63 17.3 48 8.7 57 57 NW 5 7 29.94 1014 10 16.0934 N/A
8:35 pm 20:35 Sunny 63 17.1 44 6.6 50 50 NW 6 9 29.94 1014 10 16.0934 N/A
8:55 pm 20:55 Clear 59 14.9 46 8 64 64 NW 6 9 30 1016 10 16.0934 N/A
9:15 pm 21:15 Clear 58 14.4 46 7.5 63 63 NW 7 11 30 1016 10 16.0934 N/A
9:35 pm 21:35 Clear 55 12.8 44 6.6 66 66 NW 7 11 30.03 1017 10 16.0934 N/A
9:55 pm 21:55 Clear 52 11.2 45 7.2 77 77 NW 8 13 30.03 1017 10 16.0934 N/A
10:15 pm 22:15 Clear 53 11.5 45 7.2 75 75 WNW 7 11 30.03 1017 10 16.0934 N/A
10:35 pm 22:35 Clear 50 10 43 6.3 78 78 WNW 7 11 30.06 1018 10 16.0934 N/A
10:55 pm 22:55 Clear 50 10 44 6.6 80 80 NW 6 9 30.06 1018 10 16.0934 N/A
11:15 pm 23:15 Clear 48 9.1 43 6.1 82 82 WNW 6 9 30.06 1018 10 16.0934 N/A
11:35 pm 23:35 Clear 48 8.8 42 5.8 82 82 W 7 11 30.06 1018 10 16.0934 N/A
11:55 pm 23:55 Clear 47 8.5 42 5.4 81 81 W 8 13 30.06 1018 10 16.0934 N/A

Powered by AerisWeather